If you wish to contribute or participate in the discussions about articles you are invited to join SKYbrary as a registered user

 Actions

Rouen Airport

From SKYbrary Wiki

LFOP
Airport
ICAO: LFOP – IATA: URO
Summary
Name Rouen Airport
Region Europe
Territory France FR.gif
Location , Haute-Normandie
Serving Rouen
Elevation 156.058 m
512 ft
512 ft156.058 m
Type medium airport
Coordinates 49° 23' 3.02" N, 1° 10' 29.28" E
Runways
Designator Length Width Surface ROPS
4/22 1700 m5,577.428 ft
45 m147.638 ft
ASP yes/yes
5/23 0 m0 ft
0 m0 ft
UNK /


METAR
Observation LFOP 221400Z AUTO VRB03KT CAVOK 29/13 Q1023 NOSIG
Station Rouen
Date/Time 22 July 2019 14:00:00
Wind direction °
Wind speed 03 kts
Lowest cloud amount clouds and visibility OK
Temperature 29°C
Dew point 13°C
Humidity 37%
QNH 1023 hPa
Weather condition n/a